Torna al catalogo

STARLINK-36785

AttivoComunicazioniVLEO
NORAD 67853·PAYLOAD·🇺🇸 United States

Lanciato Feb 20, 2026 da Vandenberg Space Force Base

Loading…

Prossimi Passaggi (prossime 24 ore)

TLE

AggiornatoSource: CelesTrak SupGP

Epoca: Sep 15, 2026, 04:12 UTC

1 67853C 26034D   26258.17548611  .00025465  00000+0  75249-3 0  2589
2 67853  53.1595  42.2557 0001189  90.6234 239.9799 15.34373463    15

Traccia STARLINK-36785 in tempo reale con AllMySat

Download on the App Store